Regional Weather Roundup
Issued by NWS Boston, MA

Home | Current Version | Previous Version | Text Only | Print | Product List | Glossary On
Versions: 1 2 3 4 5 6 7 8 9 10 11 12 13 14 15 16 17 18 19 20 21 22 23 24 25 26 27 28 29 30 31 32 33 34 35 36 37 38 39 40 41 42 43 44 45 46 47 48 49
000
ASUS41 KBOX 211610
RWRBOX

REGIONAL WEATHER ROUNDUP
NATIONAL WEATHER SERVICE TAUNTON MA
1200 PM EDT TUE OCT 21 2014

NOTE:  "FAIR" INDICATES FEW OR NO CLOUDS BELOW 12,000 FEET WITH NO
SIGNIFICANT WEATHER AND/OR OBSTRUCTIONS TO VISIBILITY.  THE FOLLOWING
OBSERVATION LOCATIONS DO NOT REPORT PRESENT WEATHER...PROVINCETOWN...
SMITHFIELD...BLOCK ISLAND...KEENE...AND OXFORD.

MAZALL-211700-
EASTERN MASSACHUSETTS

CITY           SKY/WX    TMP DP  RH WIND       PRES   REMARKS
BOSTON         CLOUDY    60  55  83 E5        29.95F
BEVERLY        CLOUDY    59  53  80 SE9       29.96F
LAWRENCE       CLOUDY    53  49  86 N6        29.99F
BEDFORD        CLOUDY    58  51  78 NE5       29.95F
BLUE HILL        N/A     59  54  83 SE7       29.94F
NORWOOD        CLOUDY    62  54  74 VRB5      29.94F
MARSHFIELD     NOT AVBL
PLYMOUTH       CLOUDY    61  54  77 S6        29.95F
TAUNTON        CLOUDY    63  55  75 SE6       29.94S
NEW BEDFORD    PTSUNNY   62  55  77 S14       29.94R
$$

MAZALL-211700-
CAPE COD AND THE ISLANDS

CITY           SKY/WX    TMP DP  RH WIND       PRES   REMARKS
FALMOUTH       CLOUDY    61  55  82 SE16      29.95F
HYANNIS        PTSUNNY   60  53  77 SE15G23   29.93F
CHATHAM        CLOUDY    57  53  86 SE12G21   29.97F
PROVINCETOWN   PTSUNNY   63  54  72 S10G16    29.97S
NANTUCKET      CLOUDY    58  56  93 E15       29.95F
MARTHAS VNYRD  CLOUDY    59  54  83 SE13      29.94F
$$

MAZALL-211700-
CENTRAL AND WESTERN MASSACHUSETTS

CITY           SKY/WX    TMP DP  RH WIND       PRES   REMARKS
WORCESTER      CLOUDY    54  48  80 NE5       29.95S
FITCHBURG      PTSUNNY   58  47  66 VRB3      29.96F
ORANGE         CLOUDY    56  46  69 CALM      29.95F
SPRINGFIELD    PTSUNNY   58  48  69 N6        29.93S
WESTFIELD      CLOUDY    56  45  66 N9        29.94S
NORTH ADAMS    LGT RAIN  49  46  90 S3        29.96R
PITTSFIELD     LGT RAIN  49  46  90 N3        29.93R
$$

RIZALL-211700-
RHODE ISLAND

CITY           SKY/WX    TMP DP  RH WIND       PRES   REMARKS
PROVIDENCE     CLOUDY    61  56  83 NE3       29.94F
NEWPORT        CLOUDY    62  56  80 SE12      29.93S
BLOCK ISLAND   PTSUNNY   63  55  77 MISG        N/A
SMITHFIELD     PTSUNNY   61  50  67 E6        29.94S
WESTERLY       PTSUNNY   65  53  65 S10       29.92F
$$

CTZALL-211700-
CONNECTICUT

CITY           SKY/WX    TMP DP  RH WIND       PRES   REMARKS
BRADLEY INTL   PTSUNNY   61  47  59 NE6       29.92F
HARTFORD       PTSUNNY   61  49  64 VRB5      29.92F
BRIDGEPORT     SUNNY     65  56  72 E10       29.90S
DANBURY        MOSUNNY   61  30  31 CALM      29.91F
GROTON         MOSUNNY   65  48  54 S6        29.91F
NEW HAVEN      SUNNY     67  54  63 E13       29.90F
CHESTER        NOT AVBL
MERIDEN        PTSUNNY   62  48  60 NW6       29.91F
WILLIMANTIC    PTSUNNY   62  51  67 CALM      29.92F
OXFORD         PTSUNNY   61  46  59 S12       29.91F
$$

MEZ002-015-021-024-NHZ003-005-008-011-012-014-VTZ005-008-211700-
NORTHERN NEW ENGLAND

CITY           SKY/WX    TMP DP  RH WIND       PRES   REMARKS
PORTLAND ME    CLOUDY    54  47  77 NE8       30.02F
BANGOR ME      CLOUDY    53  36  52 E3        30.10S
CONCORD NH     CLOUDY    52  45  77 CALM      29.99S
MANCHESTER NH  LGT RAIN  54  47  77 NE5       29.97S
NASHUA NH      CLOUDY    53  49  86 CALM      29.98F
PORTSMOUTH NH  CLOUDY    56  52  85 NE6       29.97F
JAFFREY NH     PTSUNNY   51  45  79 VRB5      29.97F
KEENE NH       CLOUDY    52  41  66 N7        29.97F
BURLINGTON VT  LGT RAIN  49  44  83 SE3       29.99R
MT. WASHINGTON SNOW      28  28 100 S14G23      N/A  VSB 0   WCI  17
$$

NYZ052-076-211700-
EASTERN NEW YORK

CITY           SKY/WX    TMP DP  RH WIND       PRES   REMARKS
ALBANY         LGT RAIN  51  49  92 SE3       29.94S FOG
NEW YORK CITY  PTSUNNY   65  48  54 SE10      29.88S
$$

ANZALL-211700-
MARINE OBSERVATIONS

STATION/POSITION TIME  TEMP    WIND        PRES    VSBY  WAVE
                       AIR SEA DIR/SP/G                  HT/PER
                 (UTC) (F)     (DEG/KT/KT) (MB)    (MI)  (FT/S)
BOSTON BUOY      NOT AVBL
BUZZARDS BAY     NOT AVBL
NANTUCKET SOUND  NOT AVBL
MASS BAY-STELLWA NOT AVBL
ISLE OF SHOALS   NOT AVBL
S OF BLOCK IS    NOT AVBL
$$

......................KEY.........................
  SKY/WX - SKY CONDITION/PRESENT WEATHER
  TMP    - TEMPERATURE IN FAHRENHEIT
  DWPT   - DEWPOINT IN FAHRENHEIT
  RH     - RELATIVE HUMIDITY IN PERCENT
  WIND   - DIRECTION AND SPEED IN MPH
  PRES   - MEAN SEA LEVEL PRESSURE IN INCHES OF HG
  WCI    - WIND CHILL INDEX
  VSB    - VISIBILITY IN MILES
  HX     - HEAT INDEX
  TC     - TEMPERATURE IN CELSIUS
  VRB    - VARIABLE WIND DIRECTION
  N/A    - NOT AVAILABLE


USA.gov is the U.S. government's official web portal to all federal, state and local government web resources and services.